Location: Observatoire
(46.1952°N, 5.3391°E)
Time: 13:14:36
(UTC+01:00)

Altair - Pass Details

Date: 18 February 2026
Orbit: 1502 x 1682 km, 47.2° (Epoch: 17 March)

Event Time Altitude Azimuth Distance (km) Brightness Sun altitude
Rises 08:04:31 0° 271° (W) 4,657 9.4 3.7°
Reaches altitude 10° 08:07:31 10° 272° (W) 3,690 8.9 4.2°
Maximum altitude 08:16:53 84° 1° (N) 1,572 7.7 5.7°
Drops below altitude 10° 08:26:38 10° 91° (E) 3,825 11.1 7.2°
Sets 08:29:48 0° 92° (E) 4,834 11.5 7.7°
